Year,Month,Day,Hour,Minute,Value (Times are PST for insolation in W/m^2)
2016,12,27,00,00,0.00
2016,12,27,00,01,0.00
2016,12,27,00,02,0.00
2016,12,27,00,03,0.00
2016,12,27,00,04,0.00
2016,12,27,00,05,0.00
2016,12,27,00,06,0.00
2016,12,27,00,07,0.00
2016,12,27,00,08,0.00
2016,12,27,00,09,0.00
2016,12,27,00,10,0.00
2016,12,27,00,11,0.00
2016,12,27,00,12,0.00
2016,12,27,00,13,0.00
2016,12,27,00,14,0.00
2016,12,27,00,15,0.00
2016,12,27,00,16,0.00
2016,12,27,00,17,0.00
2016,12,27,00,18,0.00
2016,12,27,00,19,0.00
2016,12,27,00,20,0.00
2016,12,27,00,21,0.00
2016,12,27,00,22,0.00
2016,12,27,00,23,0.00
2016,12,27,00,24,0.00
2016,12,27,00,25,0.00
2016,12,27,00,26,0.00
2016,12,27,00,27,0.00
2016,12,27,00,28,0.00
2016,12,27,00,29,0.00
2016,12,27,00,30,0.00
2016,12,27,00,31,0.00
2016,12,27,00,32,0.00
2016,12,27,00,33,0.00
2016,12,27,00,34,0.00
2016,12,27,00,35,0.00
2016,12,27,00,36,0.00
2016,12,27,00,37,0.00
2016,12,27,00,38,0.00
2016,12,27,00,39,0.00
2016,12,27,00,40,0.00
2016,12,27,00,41,0.00
2016,12,27,00,42,0.00
2016,12,27,00,43,0.00
2016,12,27,00,44,0.00
2016,12,27,00,45,0.00
2016,12,27,00,46,0.00
2016,12,27,00,47,0.00
2016,12,27,00,48,0.00
2016,12,27,00,49,0.00
2016,12,27,00,50,0.00
2016,12,27,00,51,0.00
2016,12,27,00,52,0.00
2016,12,27,00,53,0.00
2016,12,27,00,54,0.00
2016,12,27,00,55,0.00
2016,12,27,00,56,0.00
2016,12,27,00,57,0.00
2016,12,27,00,58,0.00
2016,12,27,00,59,0.00
2016,12,27,01,00,0.00
2016,12,27,01,01,0.00
2016,12,27,01,02,0.00
2016,12,27,01,03,0.00
2016,12,27,01,04,0.00
2016,12,27,01,05,0.00
2016,12,27,01,06,0.00
2016,12,27,01,07,0.00
2016,12,27,01,08,0.00
2016,12,27,01,09,0.00
2016,12,27,01,10,0.00
2016,12,27,01,11,0.00
2016,12,27,01,12,0.00
2016,12,27,01,13,0.00
2016,12,27,01,14,0.00
2016,12,27,01,15,0.00
2016,12,27,01,16,0.00
2016,12,27,01,17,0.00
2016,12,27,01,18,0.00
2016,12,27,01,19,0.00
2016,12,27,01,20,0.00
2016,12,27,01,21,0.00
2016,12,27,01,22,0.00
2016,12,27,01,23,0.00
2016,12,27,01,24,0.00
2016,12,27,01,25,0.00
2016,12,27,01,26,0.00
2016,12,27,01,27,0.00
2016,12,27,01,28,0.00
2016,12,27,01,29,0.00
2016,12,27,01,30,0.00
2016,12,27,01,31,0.00
2016,12,27,01,32,0.00
2016,12,27,01,33,0.00
2016,12,27,01,34,0.00
2016,12,27,01,35,0.00
2016,12,27,01,36,0.00
2016,12,27,01,37,0.00
2016,12,27,01,38,0.00
2016,12,27,01,39,0.00
2016,12,27,01,40,0.00
2016,12,27,01,41,0.00
2016,12,27,01,42,0.00
2016,12,27,01,43,0.00
2016,12,27,01,44,0.00
2016,12,27,01,45,0.00
2016,12,27,01,46,0.00
2016,12,27,01,47,0.00
2016,12,27,01,48,0.00
2016,12,27,01,49,0.00
2016,12,27,01,50,0.00
2016,12,27,01,51,0.00
2016,12,27,01,52,0.00
2016,12,27,01,53,0.00
2016,12,27,01,54,0.00
2016,12,27,01,55,0.00
2016,12,27,01,56,0.00
2016,12,27,01,57,0.00
2016,12,27,01,58,0.00
2016,12,27,01,59,0.00
2016,12,27,02,00,0.00
2016,12,27,02,01,0.00
2016,12,27,02,02,0.00
2016,12,27,02,03,0.00
2016,12,27,02,04,0.00
2016,12,27,02,05,0.00
2016,12,27,02,06,0.00
2016,12,27,02,07,0.00
2016,12,27,02,08,0.00
2016,12,27,02,09,0.00
2016,12,27,02,10,0.00
2016,12,27,02,11,0.00
2016,12,27,02,12,0.00
2016,12,27,02,13,0.00
2016,12,27,02,14,0.00
2016,12,27,02,15,0.00
2016,12,27,02,16,0.00
2016,12,27,02,17,0.00
2016,12,27,02,18,0.00
2016,12,27,02,19,0.00
2016,12,27,02,20,0.00
2016,12,27,02,21,0.00
2016,12,27,02,22,0.00
2016,12,27,02,23,0.00
2016,12,27,02,24,0.00
2016,12,27,02,25,0.00
2016,12,27,02,26,0.00
2016,12,27,02,27,0.00
2016,12,27,02,28,0.00
2016,12,27,02,29,0.00
2016,12,27,02,30,0.00
2016,12,27,02,31,0.00
2016,12,27,02,32,0.00
2016,12,27,02,33,0.00
2016,12,27,02,34,0.00
2016,12,27,02,35,0.00
2016,12,27,02,36,0.00
2016,12,27,02,37,0.00
2016,12,27,02,38,0.00
2016,12,27,02,39,0.00
2016,12,27,02,40,0.00
2016,12,27,02,41,0.00
2016,12,27,02,42,0.00
2016,12,27,02,43,0.00
2016,12,27,02,44,0.00
2016,12,27,02,45,0.00
2016,12,27,02,46,0.00
2016,12,27,02,47,0.00
2016,12,27,02,48,0.00
2016,12,27,02,49,0.00
2016,12,27,02,50,0.00
2016,12,27,02,51,0.00
2016,12,27,02,52,0.00
2016,12,27,02,53,0.00
2016,12,27,02,54,0.00
2016,12,27,02,55,0.00
2016,12,27,02,56,0.00
2016,12,27,02,57,0.00
2016,12,27,02,58,0.00
2016,12,27,02,59,0.00
2016,12,27,03,00,0.00
2016,12,27,03,01,0.00
2016,12,27,03,02,0.00
2016,12,27,03,03,0.00
2016,12,27,03,04,0.00
2016,12,27,03,05,0.00
2016,12,27,03,06,0.00
2016,12,27,03,07,0.00
2016,12,27,03,08,0.00
2016,12,27,03,09,0.00
2016,12,27,03,10,0.00
2016,12,27,03,11,0.00
2016,12,27,03,12,0.00
2016,12,27,03,13,0.00
2016,12,27,03,14,0.00
2016,12,27,03,15,0.00
2016,12,27,03,16,0.00
2016,12,27,03,17,0.00
2016,12,27,03,18,0.00
2016,12,27,03,19,0.00
2016,12,27,03,20,0.00
2016,12,27,03,21,0.00
2016,12,27,03,22,0.00
2016,12,27,03,23,0.00
2016,12,27,03,24,0.00
2016,12,27,03,25,0.00
2016,12,27,03,26,0.00
2016,12,27,03,27,0.00
2016,12,27,03,28,0.00
2016,12,27,03,29,0.00
2016,12,27,03,30,0.00
2016,12,27,03,31,0.00
2016,12,27,03,32,0.00
2016,12,27,03,33,0.00
2016,12,27,03,34,0.00
2016,12,27,03,35,0.00
2016,12,27,03,36,0.00
2016,12,27,03,37,0.00
2016,12,27,03,38,0.00
2016,12,27,03,39,0.00
2016,12,27,03,40,0.00
2016,12,27,03,41,0.00
2016,12,27,03,42,0.00
2016,12,27,03,43,0.00
2016,12,27,03,44,0.00
2016,12,27,03,45,0.00
2016,12,27,03,46,0.00
2016,12,27,03,47,0.00
2016,12,27,03,48,0.00
2016,12,27,03,49,0.00
2016,12,27,03,50,0.00
2016,12,27,03,51,0.00
2016,12,27,03,52,0.00
2016,12,27,03,53,0.00
2016,12,27,03,54,0.00
2016,12,27,03,55,0.00
2016,12,27,03,56,0.00
2016,12,27,03,57,0.00
2016,12,27,03,58,0.00
2016,12,27,03,59,0.00
2016,12,27,04,00,0.00
2016,12,27,04,01,0.00
2016,12,27,04,02,0.00
2016,12,27,04,03,0.00
2016,12,27,04,04,0.00
2016,12,27,04,05,0.00
2016,12,27,04,06,0.00
2016,12,27,04,07,0.00
2016,12,27,04,08,0.00
2016,12,27,04,09,0.00
2016,12,27,04,10,0.00
2016,12,27,04,11,0.00
2016,12,27,04,12,0.00
2016,12,27,04,13,0.00
2016,12,27,04,14,0.00
2016,12,27,04,15,0.00
2016,12,27,04,16,0.00
2016,12,27,04,17,0.00
2016,12,27,04,18,0.00
2016,12,27,04,19,0.00
2016,12,27,04,20,0.00
2016,12,27,04,21,0.00
2016,12,27,04,22,0.00
2016,12,27,04,23,0.00
2016,12,27,04,24,0.00
2016,12,27,04,25,0.00
2016,12,27,04,26,0.00
2016,12,27,04,27,0.00
2016,12,27,04,28,0.00
2016,12,27,04,29,0.00
2016,12,27,04,30,0.00
2016,12,27,04,31,0.00
2016,12,27,04,32,0.00
2016,12,27,04,33,0.00
2016,12,27,04,34,0.00
2016,12,27,04,35,0.00
2016,12,27,04,36,0.00
2016,12,27,04,37,0.00
2016,12,27,04,38,0.00
2016,12,27,04,39,0.00
2016,12,27,04,40,0.00
2016,12,27,04,41,0.00
2016,12,27,04,42,0.00
2016,12,27,04,43,0.00
2016,12,27,04,44,0.00
2016,12,27,04,45,0.00
2016,12,27,04,46,0.00
2016,12,27,04,47,0.00
2016,12,27,04,48,0.00
2016,12,27,04,49,0.00
2016,12,27,04,50,0.00
2016,12,27,04,51,0.00
2016,12,27,04,52,0.00
2016,12,27,04,53,0.00
2016,12,27,04,54,0.00
2016,12,27,04,55,0.00
2016,12,27,04,56,0.00
2016,12,27,04,57,0.00
2016,12,27,04,58,0.00
2016,12,27,04,59,0.00
2016,12,27,05,00,0.00
2016,12,27,05,01,0.00
2016,12,27,05,02,0.00
2016,12,27,05,03,0.00
2016,12,27,05,04,0.00
2016,12,27,05,05,0.00
2016,12,27,05,06,0.00
2016,12,27,05,07,0.00
2016,12,27,05,08,0.00
2016,12,27,05,09,0.00
2016,12,27,05,10,0.00
2016,12,27,05,11,0.00
2016,12,27,05,12,0.00
2016,12,27,05,13,0.00
2016,12,27,05,14,0.00
2016,12,27,05,15,0.00
2016,12,27,05,16,0.00
2016,12,27,05,17,0.00
2016,12,27,05,18,0.00
2016,12,27,05,19,0.00
2016,12,27,05,20,0.00
2016,12,27,05,21,0.00
2016,12,27,05,22,0.00
2016,12,27,05,23,0.00
2016,12,27,05,24,0.00
2016,12,27,05,25,0.00
2016,12,27,05,26,0.00
2016,12,27,05,27,0.00
2016,12,27,05,28,0.00
2016,12,27,05,29,0.00
2016,12,27,05,30,0.00
2016,12,27,05,31,0.00
2016,12,27,05,32,0.00
2016,12,27,05,33,0.00
2016,12,27,05,34,0.00
2016,12,27,05,35,0.00
2016,12,27,05,36,0.00
2016,12,27,05,37,0.00
2016,12,27,05,38,0.00
2016,12,27,05,39,0.00
2016,12,27,05,40,0.00
2016,12,27,05,41,0.00
2016,12,27,05,42,0.00
2016,12,27,05,43,0.00
2016,12,27,05,44,0.00
2016,12,27,05,45,0.00
2016,12,27,05,46,0.00
2016,12,27,05,47,0.00
2016,12,27,05,48,0.00
2016,12,27,05,49,0.00
2016,12,27,05,50,0.00
2016,12,27,05,51,0.00
2016,12,27,05,52,0.00
2016,12,27,05,53,0.00
2016,12,27,05,54,0.00
2016,12,27,05,55,0.00
2016,12,27,05,56,0.00
2016,12,27,05,57,0.00
2016,12,27,05,58,0.00
2016,12,27,05,59,0.00
2016,12,27,06,00,0.00
2016,12,27,06,01,0.00
2016,12,27,06,02,0.00
2016,12,27,06,03,0.00
2016,12,27,06,04,0.00
2016,12,27,06,05,0.00
2016,12,27,06,06,0.00
2016,12,27,06,07,0.00
2016,12,27,06,08,0.00
2016,12,27,06,09,0.00
2016,12,27,06,10,0.00
2016,12,27,06,11,0.00
2016,12,27,06,12,0.00
2016,12,27,06,13,0.00
2016,12,27,06,14,0.00
2016,12,27,06,15,0.00
2016,12,27,06,16,0.00
2016,12,27,06,17,0.00
2016,12,27,06,18,0.00
2016,12,27,06,19,0.00
2016,12,27,06,20,0.00
2016,12,27,06,21,0.00
2016,12,27,06,22,0.00
2016,12,27,06,23,0.00
2016,12,27,06,24,0.00
2016,12,27,06,25,0.00
2016,12,27,06,26,0.00
2016,12,27,06,27,0.00
2016,12,27,06,28,0.00
2016,12,27,06,29,0.00
2016,12,27,06,30,0.00
2016,12,27,06,31,0.00
2016,12,27,06,32,0.00
2016,12,27,06,33,0.00
2016,12,27,06,34,0.00
2016,12,27,06,35,0.00
2016,12,27,06,36,0.00
2016,12,27,06,37,0.00
2016,12,27,06,38,0.00
2016,12,27,06,39,0.00
2016,12,27,06,40,0.00
2016,12,27,06,41,0.00
2016,12,27,06,42,0.00
2016,12,27,06,43,0.00
2016,12,27,06,44,0.00
2016,12,27,06,45,0.00
2016,12,27,06,46,0.00
2016,12,27,06,47,0.00
2016,12,27,06,48,0.00
2016,12,27,06,49,0.00
2016,12,27,06,50,0.00
2016,12,27,06,51,0.00
2016,12,27,06,52,0.00
2016,12,27,06,53,0.00
2016,12,27,06,54,0.00
2016,12,27,06,55,0.00
2016,12,27,06,56,0.00
2016,12,27,06,57,0.00
2016,12,27,06,58,0.00
2016,12,27,06,59,0.00
2016,12,27,07,00,0.00
2016,12,27,07,01,0.00
2016,12,27,07,02,0.00
2016,12,27,07,03,0.00
2016,12,27,07,04,0.00
2016,12,27,07,05,0.00
2016,12,27,07,06,0.00
2016,12,27,07,07,0.00
2016,12,27,07,08,0.00
2016,12,27,07,09,0.00
2016,12,27,07,10,0.00
2016,12,27,07,11,0.00
2016,12,27,07,12,0.00
2016,12,27,07,13,0.00
2016,12,27,07,14,0.00
2016,12,27,07,15,0.00
2016,12,27,07,16,0.00
2016,12,27,07,17,0.00
2016,12,27,07,18,0.00
2016,12,27,07,19,0.00
2016,12,27,07,20,0.00
2016,12,27,07,21,0.00
2016,12,27,07,22,0.00
2016,12,27,07,23,0.00
2016,12,27,07,24,0.00
2016,12,27,07,25,0.00
2016,12,27,07,26,0.00
2016,12,27,07,27,0.00
2016,12,27,07,28,0.00
2016,12,27,07,29,0.00
2016,12,27,07,30,0.00
2016,12,27,07,31,0.00
2016,12,27,07,32,0.00
2016,12,27,07,33,0.00
2016,12,27,07,34,0.00
2016,12,27,07,35,0.00
2016,12,27,07,36,0.00
2016,12,27,07,37,0.00
2016,12,27,07,38,0.00
2016,12,27,07,39,0.00
2016,12,27,07,40,0.00
2016,12,27,07,41,0.00
2016,12,27,07,42,0.00
2016,12,27,07,43,0.00
2016,12,27,07,44,0.00
2016,12,27,07,45,0.00
2016,12,27,07,46,0.00
2016,12,27,07,47,0.00
2016,12,27,07,48,0.00
2016,12,27,07,49,0.00
2016,12,27,07,50,0.00
2016,12,27,07,51,0.00
2016,12,27,07,52,0.00
2016,12,27,07,53,0.00
2016,12,27,07,54,0.00
2016,12,27,07,55,0.00
2016,12,27,07,56,0.00
2016,12,27,07,57,0.00
2016,12,27,07,58,0.00
2016,12,27,07,59,0.00
2016,12,27,08,00,0.00
2016,12,27,08,01,0.00
2016,12,27,08,02,0.00
2016,12,27,08,03,0.00
2016,12,27,08,04,0.00
2016,12,27,08,05,0.00
2016,12,27,08,06,0.00
2016,12,27,08,07,0.00
2016,12,27,08,08,0.00
2016,12,27,08,09,0.00
2016,12,27,08,10,0.00
2016,12,27,08,11,0.00
2016,12,27,08,12,4.20
2016,12,27,08,13,5.00
2016,12,27,08,14,5.30
2016,12,27,08,15,7.00
2016,12,27,08,16,7.00
2016,12,27,08,17,7.90
2016,12,27,08,18,9.00
2016,12,27,08,19,9.00
2016,12,27,08,20,10.50
2016,12,27,08,21,11.00
2016,12,27,08,22,11.00
2016,12,27,08,23,11.20
2016,12,27,08,24,12.00
2016,12,27,08,25,12.80
2016,12,27,08,26,14.00
2016,12,27,08,27,14.00
2016,12,27,08,28,14.00
2016,12,27,08,29,14.00
2016,12,27,08,30,15.80
2016,12,27,08,31,16.00
2016,12,27,08,32,16.40
2016,12,27,08,33,18.00
2016,12,27,08,34,18.40
2016,12,27,08,35,20.10
2016,12,27,08,36,22.30
2016,12,27,08,37,23.00
2016,12,27,08,38,24.60
2016,12,27,08,39,26.00
2016,12,27,08,40,26.40
2016,12,27,08,41,28.50
2016,12,27,08,42,30.00
2016,12,27,08,43,30.90
2016,12,27,08,44,32.00
2016,12,27,08,45,32.00
2016,12,27,08,46,32.80
2016,12,27,08,47,34.80
2016,12,27,08,48,39.30
2016,12,27,08,49,42.40
2016,12,27,08,50,44.00
2016,12,27,08,51,45.10
2016,12,27,08,52,48.00
2016,12,27,08,53,49.00
2016,12,27,08,54,52.60
2016,12,27,08,55,53.20
2016,12,27,08,56,53.00
2016,12,27,08,57,53.20
2016,12,27,08,58,54.00
2016,12,27,08,59,54.00
2016,12,27,09,00,55.80
2016,12,27,09,01,64.30
2016,12,27,09,02,73.60
2016,12,27,09,03,76.00
2016,12,27,09,04,76.90
2016,12,27,09,05,81.50
2016,12,27,09,06,86.80
2016,12,27,09,07,91.50
2016,12,27,09,08,93.00
2016,12,27,09,09,93.00
2016,12,27,09,10,93.00
2016,12,27,09,11,87.80
2016,12,27,09,12,86.00
2016,12,27,09,13,84.20
2016,12,27,09,14,85.80
2016,12,27,09,15,84.50
2016,12,27,09,16,86.00
2016,12,27,09,17,86.90
2016,12,27,09,18,83.10
2016,12,27,09,19,82.20
2016,12,27,09,20,71.20
2016,12,27,09,21,59.80
2016,12,27,09,22,53.20
2016,12,27,09,23,52.60
2016,12,27,09,24,50.40
2016,12,27,09,25,48.30
2016,12,27,09,26,46.50
2016,12,27,09,27,44.80
2016,12,27,09,28,44.00
2016,12,27,09,29,42.50
2016,12,27,09,30,40.30
2016,12,27,09,31,37.00
2016,12,27,09,32,34.60
2016,12,27,09,33,33.00
2016,12,27,09,34,32.50
2016,12,27,09,35,32.00
2016,12,27,09,36,32.00
2016,12,27,09,37,32.00
2016,12,27,09,38,32.00
2016,12,27,09,39,32.00
2016,12,27,09,40,32.00
2016,12,27,09,41,32.20
2016,12,27,09,42,33.00
2016,12,27,09,43,33.00
2016,12,27,09,44,32.40
2016,12,27,09,45,32.00
2016,12,27,09,46,30.40
2016,12,27,09,47,28.30
2016,12,27,09,48,28.00
2016,12,27,09,49,28.00
2016,12,27,09,50,28.50
2016,12,27,09,51,30.00
2016,12,27,09,52,30.00
2016,12,27,09,53,30.00
2016,12,27,09,54,28.50
2016,12,27,09,55,28.00
2016,12,27,09,56,26.20
2016,12,27,09,57,26.00
2016,12,27,09,58,26.00
2016,12,27,09,59,25.70
2016,12,27,10,00,25.00
2016,12,27,10,01,25.50
2016,12,27,10,02,26.00
2016,12,27,10,03,26.00
2016,12,27,10,04,27.70
2016,12,27,10,05,29.80
2016,12,27,10,06,30.40
2016,12,27,10,07,32.30
2016,12,27,10,08,34.40
2016,12,27,10,09,38.30
2016,12,27,10,10,42.20
2016,12,27,10,11,46.00
2016,12,27,10,12,50.00
2016,12,27,10,13,52.70
2016,12,27,10,14,53.90
2016,12,27,10,15,53.00
2016,12,27,10,16,53.00
2016,12,27,10,17,53.00
2016,12,27,10,18,53.00
2016,12,27,10,19,51.80
2016,12,27,10,20,49.50
2016,12,27,10,21,47.30
2016,12,27,10,22,47.00
2016,12,27,10,23,46.00
2016,12,27,10,24,46.00
2016,12,27,10,25,45.30
2016,12,27,10,26,44.00
2016,12,27,10,27,42.90
2016,12,27,10,28,42.00
2016,12,27,10,29,43.50
2016,12,27,10,30,44.00
2016,12,27,10,31,44.20
2016,12,27,10,32,46.00
2016,12,27,10,33,46.30
2016,12,27,10,34,48.60
2016,12,27,10,35,53.60
2016,12,27,10,36,62.90
2016,12,27,10,37,71.90
2016,12,27,10,38,79.70
2016,12,27,10,39,87.60
2016,12,27,10,40,93.70
2016,12,27,10,41,107.60
2016,12,27,10,42,128.20
2016,12,27,10,43,131.20
2016,12,27,10,44,185.50
2016,12,27,10,45,224.20
2016,12,27,10,46,159.00
2016,12,27,10,47,185.80
2016,12,27,10,48,133.50
2016,12,27,10,49,95.80
2016,12,27,10,50,85.10
2016,12,27,10,51,90.00
2016,12,27,10,52,91.40
2016,12,27,10,53,91.90
2016,12,27,10,54,93.70
2016,12,27,10,55,96.60
2016,12,27,10,56,97.90
2016,12,27,10,57,136.70
2016,12,27,10,58,169.20
2016,12,27,10,59,222.60
2016,12,27,11,00,266.80
2016,12,27,11,01,299.30
2016,12,27,11,02,322.00
2016,12,27,11,03,339.60
2016,12,27,11,04,351.20
2016,12,27,11,05,354.70
2016,12,27,11,06,370.10
2016,12,27,11,07,387.80
2016,12,27,11,08,392.40
2016,12,27,11,09,411.20
2016,12,27,11,10,429.10
2016,12,27,11,11,449.30
2016,12,27,11,12,458.20
2016,12,27,11,13,449.60
2016,12,27,11,14,396.60
2016,12,27,11,15,348.60
2016,12,27,11,16,159.90
2016,12,27,11,17,136.00
2016,12,27,11,18,119.60
2016,12,27,11,19,107.90
2016,12,27,11,20,99.50
2016,12,27,11,21,97.20
2016,12,27,11,22,97.00
2016,12,27,11,23,102.40
2016,12,27,11,24,105.40
2016,12,27,11,25,106.30
2016,12,27,11,26,106.90
2016,12,27,11,27,110.10
2016,12,27,11,28,107.10
2016,12,27,11,29,104.30
2016,12,27,11,30,104.80
2016,12,27,11,31,109.00
2016,12,27,11,32,112.70
2016,12,27,11,33,111.00
2016,12,27,11,34,111.00
2016,12,27,11,35,110.00
2016,12,27,11,36,110.20
2016,12,27,11,37,111.00
2016,12,27,11,38,109.40
2016,12,27,11,39,107.20
2016,12,27,11,40,105.40
2016,12,27,11,41,110.80
2016,12,27,11,42,118.60
2016,12,27,11,43,130.40
2016,12,27,11,44,142.30
2016,12,27,11,45,153.50
2016,12,27,11,46,165.50
2016,12,27,11,47,246.30
2016,12,27,11,48,269.00
2016,12,27,11,49,348.30
2016,12,27,11,50,357.80
2016,12,27,11,51,318.00
2016,12,27,11,52,281.00
2016,12,27,11,53,274.70
2016,12,27,11,54,284.90
2016,12,27,11,55,261.90
2016,12,27,11,56,272.90
2016,12,27,11,57,250.70
2016,12,27,11,58,217.20
2016,12,27,11,59,280.40
2016,12,27,12,00,268.70
2016,12,27,12,01,279.50
2016,12,27,12,02,241.20
2016,12,27,12,03,186.60
2016,12,27,12,04,174.00
2016,12,27,12,05,174.00
2016,12,27,12,06,179.60
2016,12,27,12,07,219.20
2016,12,27,12,08,234.90
2016,12,27,12,09,197.40
2016,12,27,12,10,165.30
2016,12,27,12,11,121.70
2016,12,27,12,12,98.50
2016,12,27,12,13,84.60
2016,12,27,12,14,152.40
2016,12,27,12,15,151.40
2016,12,27,12,16,125.00
2016,12,27,12,17,125.00
2016,12,27,12,18,125.00
2016,12,27,12,19,125.00
2016,12,27,12,20,218.30
2016,12,27,12,21,264.20
2016,12,27,12,22,262.20
2016,12,27,12,23,260.20
2016,12,27,12,24,261.60
2016,12,27,12,25,258.30
2016,12,27,12,26,245.60
2016,12,27,12,27,232.00
2016,12,27,12,28,180.80
2016,12,27,12,29,100.10
2016,12,27,12,30,86.90
2016,12,27,12,31,111.20
2016,12,27,12,32,95.70
2016,12,27,12,33,57.70
2016,12,27,12,34,48.30
2016,12,27,12,35,46.50
2016,12,27,12,36,46.60
2016,12,27,12,37,43.50
2016,12,27,12,38,42.00
2016,12,27,12,39,48.30
2016,12,27,12,40,91.00
2016,12,27,12,41,91.80
2016,12,27,12,42,86.20
2016,12,27,12,43,61.90
2016,12,27,12,44,60.70
2016,12,27,12,45,52.00
2016,12,27,12,46,42.00
2016,12,27,12,47,54.20
2016,12,27,12,48,67.90
2016,12,27,12,49,105.00
2016,12,27,12,50,97.60
2016,12,27,12,51,67.00
2016,12,27,12,52,63.00
2016,12,27,12,53,65.60
2016,12,27,12,54,43.00
2016,12,27,12,55,33.00
2016,12,27,12,56,34.70
2016,12,27,12,57,37.10
2016,12,27,12,58,39.20
2016,12,27,12,59,40.00
2016,12,27,13,00,40.80
2016,12,27,13,01,42.90
2016,12,27,13,02,45.10
2016,12,27,13,03,46.70
2016,12,27,13,04,51.50
2016,12,27,13,05,57.50
2016,12,27,13,06,62.00
2016,12,27,13,07,60.70
2016,12,27,13,08,55.30
2016,12,27,13,09,57.80
2016,12,27,13,10,68.50
2016,12,27,13,11,85.40
2016,12,27,13,12,94.40
2016,12,27,13,13,110.20
2016,12,27,13,14,148.70
2016,12,27,13,15,174.50
2016,12,27,13,16,134.80
2016,12,27,13,17,128.30
2016,12,27,13,18,89.40
2016,12,27,13,19,63.00
2016,12,27,13,20,94.20
2016,12,27,13,21,100.50
2016,12,27,13,22,87.60
2016,12,27,13,23,98.70
2016,12,27,13,24,108.40
2016,12,27,13,25,125.00
2016,12,27,13,26,121.40
2016,12,27,13,27,98.00
2016,12,27,13,28,70.90
2016,12,27,13,29,60.00
2016,12,27,13,30,50.10
2016,12,27,13,31,50.80
2016,12,27,13,32,61.30
2016,12,27,13,33,78.70
2016,12,27,13,34,69.70
2016,12,27,13,35,69.00
2016,12,27,13,36,66.00
2016,12,27,13,37,63.00
2016,12,27,13,38,60.80
2016,12,27,13,39,61.70
2016,12,27,13,40,62.00
2016,12,27,13,41,63.30
2016,12,27,13,42,70.20
2016,12,27,13,43,84.20
2016,12,27,13,44,75.30
2016,12,27,13,45,70.80
2016,12,27,13,46,74.60
2016,12,27,13,47,80.00
2016,12,27,13,48,88.70
2016,12,27,13,49,110.90
2016,12,27,13,50,117.70
2016,12,27,13,51,108.20
2016,12,27,13,52,111.00
2016,12,27,13,53,123.40
2016,12,27,13,54,143.60
2016,12,27,13,55,131.60
2016,12,27,13,56,141.00
2016,12,27,13,57,173.80
2016,12,27,13,58,219.40
2016,12,27,13,59,163.20
2016,12,27,14,00,166.00
2016,12,27,14,01,165.10
2016,12,27,14,02,184.30
2016,12,27,14,03,230.20
2016,12,27,14,04,243.00
2016,12,27,14,05,245.80
2016,12,27,14,06,242.20
2016,12,27,14,07,210.40
2016,12,27,14,08,225.20
2016,12,27,14,09,215.40
2016,12,27,14,10,209.90
2016,12,27,14,11,208.40
2016,12,27,14,12,211.90
2016,12,27,14,13,206.80
2016,12,27,14,14,206.00
2016,12,27,14,15,205.10
2016,12,27,14,16,196.00
2016,12,27,14,17,180.80
2016,12,27,14,18,158.20
2016,12,27,14,19,157.00
2016,12,27,14,20,173.70
2016,12,27,14,21,182.50
2016,12,27,14,22,174.20
2016,12,27,14,23,154.40
2016,12,27,14,24,120.20
2016,12,27,14,25,87.30
2016,12,27,14,26,72.70
2016,12,27,14,27,76.40
2016,12,27,14,28,88.90
2016,12,27,14,29,103.70
2016,12,27,14,30,86.20
2016,12,27,14,31,54.00
2016,12,27,14,32,44.50
2016,12,27,14,33,52.30
2016,12,27,14,34,74.20
2016,12,27,14,35,110.60
2016,12,27,14,36,139.30
2016,12,27,14,37,135.30
2016,12,27,14,38,131.50
2016,12,27,14,39,144.80
2016,12,27,14,40,147.90
2016,12,27,14,41,145.70
2016,12,27,14,42,144.00
2016,12,27,14,43,144.00
2016,12,27,14,44,144.00
2016,12,27,14,45,144.00
2016,12,27,14,46,144.00
2016,12,27,14,47,142.40
2016,12,27,14,48,142.00
2016,12,27,14,49,140.90
2016,12,27,14,50,139.00
2016,12,27,14,51,138.40
2016,12,27,14,52,136.20
2016,12,27,14,53,135.00
2016,12,27,14,54,134.40
2016,12,27,14,55,134.00
2016,12,27,14,56,134.00
2016,12,27,14,57,132.10
2016,12,27,14,58,127.90
2016,12,27,14,59,122.20
2016,12,27,15,00,102.60
2016,12,27,15,01,101.80
2016,12,27,15,02,80.00
2016,12,27,15,03,60.70
2016,12,27,15,04,58.50
2016,12,27,15,05,58.00
2016,12,27,15,06,58.20
2016,12,27,15,07,63.20
2016,12,27,15,08,80.20
2016,12,27,15,09,108.30
2016,12,27,15,10,96.40
2016,12,27,15,11,84.00
2016,12,27,15,12,73.30
2016,12,27,15,13,62.10
2016,12,27,15,14,58.20
2016,12,27,15,15,53.70
2016,12,27,15,16,50.20
2016,12,27,15,17,46.10
2016,12,27,15,18,43.20
2016,12,27,15,19,42.00
2016,12,27,15,20,40.80
2016,12,27,15,21,40.00
2016,12,27,15,22,39.20
2016,12,27,15,23,39.00
2016,12,27,15,24,39.00
2016,12,27,15,25,39.00
2016,12,27,15,26,39.00
2016,12,27,15,27,39.50
2016,12,27,15,28,40.00
2016,12,27,15,29,40.00
2016,12,27,15,30,40.00
2016,12,27,15,31,40.00
2016,12,27,15,32,40.00
2016,12,27,15,33,40.00
2016,12,27,15,34,40.00
2016,12,27,15,35,40.00
2016,12,27,15,36,41.00
2016,12,27,15,37,42.00
2016,12,27,15,38,42.00
2016,12,27,15,39,45.40
2016,12,27,15,40,44.10
2016,12,27,15,41,42.00
2016,12,27,15,42,41.60
2016,12,27,15,43,39.70
2016,12,27,15,44,39.00
2016,12,27,15,45,37.90
2016,12,27,15,46,37.00
2016,12,27,15,47,35.50
2016,12,27,15,48,33.30
2016,12,27,15,49,31.90
2016,12,27,15,50,29.60
2016,12,27,15,51,27.50
2016,12,27,15,52,25.60
2016,12,27,15,53,24.10
2016,12,27,15,54,23.00
2016,12,27,15,55,21.70
2016,12,27,15,56,21.00
2016,12,27,15,57,19.20
2016,12,27,15,58,19.00
2016,12,27,15,59,18.80
2016,12,27,16,00,18.00
2016,12,27,16,01,17.20
2016,12,27,16,02,16.00
2016,12,27,16,03,16.00
2016,12,27,16,04,16.00
2016,12,27,16,05,16.00
2016,12,27,16,06,15.90
2016,12,27,16,07,14.00
2016,12,27,16,08,14.00
2016,12,27,16,09,14.00
2016,12,27,16,10,14.00
2016,12,27,16,11,12.90
2016,12,27,16,12,11.40
2016,12,27,16,13,11.00
2016,12,27,16,14,11.00
2016,12,27,16,15,9.10
2016,12,27,16,16,9.00
2016,12,27,16,17,8.40
2016,12,27,16,18,7.00
2016,12,27,16,19,6.00
2016,12,27,16,20,5.00
2016,12,27,16,21,5.00
2016,12,27,16,22,1.00
2016,12,27,16,23,0.00
2016,12,27,16,24,0.00
2016,12,27,16,25,0.00
2016,12,27,16,26,0.00
2016,12,27,16,27,0.00
2016,12,27,16,28,0.00
2016,12,27,16,29,0.00
2016,12,27,16,30,0.00
2016,12,27,16,31,0.00
2016,12,27,16,32,0.00
2016,12,27,16,33,0.00
2016,12,27,16,34,0.00
2016,12,27,16,35,0.00
2016,12,27,16,36,0.00
2016,12,27,16,37,0.00
2016,12,27,16,38,0.00
2016,12,27,16,39,0.00
2016,12,27,16,40,0.00
2016,12,27,16,41,0.00
2016,12,27,16,42,0.00
2016,12,27,16,43,0.00
2016,12,27,16,44,0.00
2016,12,27,16,45,0.00
2016,12,27,16,46,0.00
2016,12,27,16,47,0.00
2016,12,27,16,48,0.00
2016,12,27,16,49,0.00
2016,12,27,16,50,0.00
2016,12,27,16,51,0.00
2016,12,27,16,52,0.00
2016,12,27,16,53,0.00
2016,12,27,16,54,0.00
2016,12,27,16,55,0.00
2016,12,27,16,56,0.00
2016,12,27,16,57,0.00
2016,12,27,16,58,0.00
2016,12,27,16,59,0.00
2016,12,27,17,00,0.00
2016,12,27,17,01,0.00
2016,12,27,17,02,0.00
2016,12,27,17,03,0.00
2016,12,27,17,04,0.00
2016,12,27,17,05,0.00
2016,12,27,17,06,0.00
2016,12,27,17,07,0.00
2016,12,27,17,08,0.00
2016,12,27,17,09,0.00
2016,12,27,17,10,0.00
2016,12,27,17,11,0.00
2016,12,27,17,12,0.00
2016,12,27,17,13,0.00
2016,12,27,17,14,0.00
2016,12,27,17,15,0.00
2016,12,27,17,16,0.00
2016,12,27,17,17,0.00
2016,12,27,17,18,0.00
2016,12,27,17,19,0.00
2016,12,27,17,20,0.00
2016,12,27,17,21,0.00
2016,12,27,17,22,0.00
2016,12,27,17,23,0.00
2016,12,27,17,24,0.00
2016,12,27,17,25,0.00
2016,12,27,17,26,0.00
2016,12,27,17,27,0.00
2016,12,27,17,28,0.00
2016,12,27,17,29,0.00
2016,12,27,17,30,0.00
2016,12,27,17,31,0.00
2016,12,27,17,32,0.00
2016,12,27,17,33,0.00
2016,12,27,17,34,0.00
2016,12,27,17,35,0.00
2016,12,27,17,36,0.00
2016,12,27,17,37,0.00